Home   Weather   Vevey   Past weeks

Flag for Switzerland Past Weather in Vevey, Vaud, Switzerland — Yesterday and Last 2 Weeks

Now
50 °F

Cool.


Feels Like: 49 °F
Forecast: 46 / 53 °F
Wind: 3 mph from North

Location: Aigle

Current Time: Apr 25, 2017 at 6:54:29 pm

Latest Report: Apr 25, 2017 at 6:00 pm


Visibility: N/A

Pressure: 29.75 "Hg

Humidity: 93%

Dew Point: 48 °F

Location of VeveyLocation

Past Weather in Vevey — Graph

°F

Vevey Temperature Yesterday

Maximum temperature yesterday: 68 °F (at 6:00 pm)
Minimum temperature yesterday: 33 °F (at 7:00 am)
Average temperature yesterday: 51 °F

High & Low Weather Summary for the Past Weeks

 TemperatureHumidityPressure
High73 °F (Apr 10, 6:00 pm)99% (Apr 12, 5:00 am)30.52 "Hg (Apr 12, 5:00 am)
Low26 °F (Apr 20, 7:00 am)20% (Apr 18, 5:00 pm)29.77 "Hg (Apr 25, 5:00 pm)
Average50 °F61%30.15 "Hg
* Reported Apr 10 5:00 pm — Apr 25 5:00 pm, Vevey, Weather by CustomWeather, © 2017

Note: Actual official high and low records may vary slightly from our data, if they occured in-between our weather recording intervals... More about our weather records

Advertising

Vevey Weather History for the Previous 24 Hours

Scroll right to see more
 ConditionsComfort  
Time TempWeatherWind HumidityBarometerVisibility
5:00 pm
Tue, Apr 25
51 °FLight rain. Overcast.7 mph89%29.77 "Hg6 mi
4:00 pm51 °FCool.7 mph86%29.80 "HgN/A
3:00 pm52 °FCool.12 mph76%29.83 "HgN/A
2:00 pm53 °FRain. Overcast.9 mph74%29.83 "Hg8 mi
1:00 pm53 °FCool.10 mph78%29.81 "HgN/A
12:00 pm55 °FCool.12 mph70%29.78 "HgN/A
11:00 am59 °FPartly sunny.7 mph59%29.78 "Hg19 mi
10:00 am55 °FCool.10 mph69%29.81 "HgN/A
9:00 am56 °FCool.8 mph68%29.80 "HgN/A
8:00 am51 °FPartly sunny.2 mph79%29.81 "Hg19 mi
7:00 am48 °FCool.1 mph83%29.83 "HgN/A
6:00 am47 °FCool.2 mph87%29.83 "HgN/A
5:00 am47 °FOvercast.1 mph88%29.84 "Hg16 mi
4:00 am50 °FCool.1 mph83%29.84 "HgN/A
3:00 am51 °FCool.3 mph75%29.85 "HgN/A
2:00 am54 °FCool.3 mph57%29.85 "HgN/A
1:00 am49 °FCool.1 mph67%29.86 "HgN/A
12:00 am51 °FCool.3 mph64%29.86 "HgN/A
11:00 pm
Mon, Apr 24
53 °FCool.1 mph58%29.85 "HgN/A
10:00 pm52 °FCool.5 mph68%29.86 "HgN/A
9:00 pm57 °FRefreshingly cool.3 mph58%29.85 "HgN/A
8:00 pm62 °FPartly sunny.1 mph49%29.84 "Hg19 mi
7:00 pm67 °FMild.No wind34%29.84 "HgN/A
6:00 pm68 °FMild.2 mph33%29.85 "HgN/A
Weather by CustomWeather, © 2017

See weather overviewHow to use our weather pages